DateTimeUTC,F1_A11,F1_S11,BsB_S11,BsG_S11,BsR_S11,BbsB_S11,BbsG_S11,BbsR_S11,BaB_A11,BaG_A11,BaR_A11,Tu_S11,T_S11,Uu_S11,U_S11,P_S11,T1_A11
2021-08-08T12:00:00Z,00000200,20000000,,,,,,,0000.40,0000.09,0000.35,19.1,25.7,05.3,03.5,0666.9,31.1
2021-08-08T12:01:00Z,00000200,20000000,,,,,,,-000.26,-000.26,-000.07,19.1,25.8,05.3,03.5,0666.9,31.1
2021-08-08T12:02:00Z,00000200,20000000,,,,,,,0000.23,-000.02,-000.04,19.1,25.8,05.3,03.5,0666.9,31.1
2021-08-08T12:03:00Z,00000200,60000000,,,,,,,0000.18,0000.44,0000.32,19.1,25.8,05.3,03.5,0666.9,31.1
2021-08-08T12:04:00Z,00000200,40000000,0001.95,0001.09,0000.89,0000.14,0000.18,0000.13,0000.49,0000.67,0000.52,19.2,25.6,05.2,03.5,0667.8,31.1
2021-08-08T12:05:00Z,00000200,00000000,0002.10,0001.49,0000.79,0000.20,0000.12,0000.33,0000.56,0000.07,-000.01,19.2,25.6,05.2,03.6,0668.0,31.1
2021-08-08T12:06:00Z,00000200,00000000,0002.17,0001.09,0000.88,0000.20,0000.09,0000.64,0000.05,0000.37,0000.54,19.2,25.5,05.2,03.5,0668.0,31.1
2021-08-08T12:07:00Z,00000200,00000000,0002.38,0001.47,0001.01,0000.42,0000.23,0000.42,0000.83,0000.50,0000.24,19.2,25.5,05.3,03.6,0668.0,31.1
2021-08-08T12:08:00Z,00000200,00000000,0002.09,0001.13,0000.74,0000.36,0000.28,0000.20,-000.18,0000.37,0000.43,19.2,25.5,05.4,03.7,0668.0,31.0
2021-08-08T12:09:00Z,00000200,00000000,0000.69,0001.35,0000.82,-000.15,-000.10,0000.41,0001.31,0000.41,0000.23,19.2,25.5,05.3,03.6,0668.0,31.1
2021-08-08T12:10:00Z,00000200,00000000,0002.11,0001.19,0000.76,-000.02,0000.17,0000.13,0000.13,0000.57,0000.52,19.2,25.5,05.4,03.7,0668.0,31.1
2021-08-08T12:11:00Z,00000200,00000000,0002.42,0001.20,0000.84,0000.49,0000.27,0000.06,0000.27,0000.26,0000.44,19.2,25.5,05.5,03.7,0668.0,31.1
2021-08-08T12:12:00Z,00000200,00000000,0002.58,0001.33,0000.89,0000.49,0000.24,0000.30,0000.77,0000.56,0000.16,19.2,25.5,05.5,03.8,0668.0,31.0
2021-08-08T12:13:00Z,00000200,00000000,0001.96,0001.05,0000.93,0000.14,0000.22,0000.19,0000.29,0000.18,0000.50,19.2,25.5,05.5,03.8,0668.0,31.1
2021-08-08T12:14:00Z,00000200,00000000,0002.34,0001.08,0000.81,0001.00,0000.25,0000.33,0000.34,0000.71,0000.32,19.2,25.5,05.6,03.8,0668.0,31.1
2021-08-08T12:15:00Z,00000200,00000000,0001.49,0001.29,0000.79,0000.45,0000.13,0000.22,0000.50,0000.50,0000.19,19.3,25.5,05.6,03.9,0668.0,31.0
2021-08-08T12:16:00Z,00000200,00000000,0001.18,0001.26,0000.87,0000.10,0000.36,0000.35,0000.39,0000.47,0000.80,19.2,25.5,05.7,03.9,0668.0,31.1
2021-08-08T12:17:00Z,00000200,00000000,0001.87,0000.79,0000.60,0000.17,0000.11,0000.40,0000.53,0000.38,0000.13,19.2,25.5,05.7,03.9,0668.0,31.1
2021-08-08T12:18:00Z,00000200,00000000,0002.09,0001.36,0001.23,0000.71,0000.47,0000.88,0000.66,0000.53,0000.58,19.2,25.5,05.7,03.9,0668.0,31.0
2021-08-08T12:19:00Z,00000200,00000000,0001.84,0001.18,0000.99,0000.46,0000.00,0000.20,0000.13,0000.17,0000.28,19.2,25.5,05.8,04.0,0668.0,31.0
2021-08-08T12:20:00Z,00000200,00000000,0001.17,0001.05,0000.82,0000.16,0000.21,0000.28,0000.83,0000.72,0000.22,19.2,25.5,05.8,04.0,0668.0,31.1
2021-08-08T12:21:00Z,00000200,00000000,0002.00,0001.40,0000.97,0000.86,0000.28,0000.19,0000.38,0000.31,0000.30,19.3,25.5,05.8,04.0,0668.0,31.1
2021-08-08T12:22:00Z,00000200,00000000,0002.63,0001.27,0001.11,-000.09,0000.32,0000.17,0000.51,0000.40,0000.70,19.3,25.5,05.9,04.0,0668.0,31.0
2021-08-08T12:23:00Z,00000200,00000000,0001.85,0001.03,0001.13,0000.20,0000.31,0000.51,0000.21,0000.32,-000.12,19.3,25.5,05.8,04.0,0668.0,31.0
2021-08-08T12:24:00Z,00000200,00000000,0002.17,0001.45,0001.03,0000.02,0000.17,0000.03,0000.47,0000.42,0000.27,19.3,25.5,05.9,04.1,0668.0,31.0
2021-08-08T12:25:00Z,00000200,00000000,0002.14,0001.01,0001.01,0000.53,-000.03,0000.42,0000.13,0000.23,0000.23,19.3,25.5,05.9,04.1,0667.9,31.0
2021-08-08T12:26:00Z,00000200,00000000,0002.25,0000.95,0000.71,0000.23,0000.33,0000.10,0000.66,0000.60,0000.53,19.3,25.5,05.9,04.1,0668.0,31.1
2021-08-08T12:27:00Z,00000200,00000000,0001.84,0001.22,0000.83,0000.08,-000.15,-000.03,-000.04,0000.24,0000.35,19.3,25.5,05.9,04.0,0668.0,31.1
2021-08-08T12:28:00Z,00000200,00000000,0002.58,0001.09,0001.10,0000.80,0000.01,0000.62,0000.46,0000.36,0000.10,19.3,25.5,06.0,04.1,0668.0,31.1
2021-08-08T12:29:00Z,00000200,00000000,0001.95,0001.25,0000.49,-000.15,0000.28,0000.12,0000.50,0000.60,0000.66,19.3,25.5,06.1,04.2,0668.0,31.0
2021-08-08T12:30:00Z,00000200,00000000,0001.43,0001.56,0001.01,0000.12,-000.10,0000.23,0000.71,0000.34,0000.42,19.3,25.5,06.0,04.1,0668.0,31.0
2021-08-08T12:31:00Z,00000200,00000000,0002.18,0001.16,0000.60,0000.49,0000.16,0000.09,0000.34,0000.24,0000.06,19.3,25.5,06.0,04.1,0668.0,31.1
2021-08-08T12:32:00Z,00000200,00000000,0002.10,0001.26,0000.86,0000.74,0000.28,0000.34,0000.24,0000.32,0000.66,19.2,25.5,06.1,04.2,0668.0,31.1
2021-08-08T12:33:00Z,00000200,00000000,0002.39,0001.02,0000.69,-000.05,0000.21,0000.19,0000.26,0000.15,0000.12,19.2,25.5,06.0,04.1,0668.0,31.0
2021-08-08T12:34:00Z,00000200,00000000,0002.45,0000.99,0000.58,0000.35,0000.32,0000.32,0000.71,0000.54,0000.14,19.2,25.5,06.0,04.1,0668.0,31.0
2021-08-08T12:35:00Z,00000200,00000000,0003.00,0001.00,0000.91,0000.43,0000.27,0000.54,0000.04,0000.27,0000.66,19.2,25.5,06.2,04.3,0668.0,31.0
2021-08-08T12:36:00Z,00000200,00000000,0001.90,0000.86,0001.09,0000.12,0000.06,0000.49,0000.68,0000.71,0000.22,19.2,25.4,06.2,04.2,0668.0,31.0
2021-08-08T12:37:00Z,00000200,00000000,0002.19,0001.17,0000.84,0000.18,0000.13,-000.01,0000.57,0000.46,0000.14,19.2,25.4,06.3,04.3,0668.0,31.0
2021-08-08T12:38:00Z,00000200,00000000,0001.30,0001.15,0000.73,0000.16,0000.03,0000.41,0000.09,-000.07,0000.23,19.2,25.4,06.2,04.2,0668.0,31.0
2021-08-08T12:39:00Z,00000200,00000000,0001.59,0001.30,0000.75,0000.08,0000.06,0000.25,0000.48,0000.45,0000.42,19.2,25.4,06.2,04.2,0668.0,31.0
2021-08-08T12:40:00Z,00000200,00000000,0002.31,0000.93,0000.86,0000.08,0000.27,0000.38,0000.46,0000.41,0000.48,19.2,25.4,06.3,04.3,0668.0,31.0
2021-08-08T12:41:00Z,00000200,00000000,0002.06,0001.33,0000.84,0000.53,0000.23,0000.16,0000.48,0000.55,-000.04,19.2,25.4,06.3,04.3,0668.0,31.0
2021-08-08T12:42:00Z,00000200,00000000,0002.17,0001.13,0000.82,0000.80,0000.47,0000.00,0000.19,0000.46,0000.70,19.2,25.4,06.4,04.4,0668.1,31.1
2021-08-08T12:43:00Z,00000200,00000000,0001.95,0001.19,0001.11,-000.12,-000.08,0000.26,0001.03,0000.35,0000.56,19.2,25.4,06.3,04.3,0668.0,31.1
2021-08-08T12:44:00Z,00000200,00000000,0001.69,0001.14,0000.92,-000.20,0000.12,0000.50,0000.15,0000.40,0000.38,19.2,25.4,06.4,04.4,0668.0,31.0
2021-08-08T12:45:00Z,00000200,00000000,0001.07,0001.06,0001.16,0000.60,0000.55,0000.34,0000.42,0000.70,0000.24,19.2,25.4,06.4,04.4,0668.0,31.0
2021-08-08T12:46:00Z,00000200,00000000,0001.56,0001.04,0000.90,-000.11,-000.06,0000.47,0000.13,-000.16,0000.07,19.2,25.4,06.5,04.4,0668.0,31.0
2021-08-08T12:47:00Z,00000200,00000000,0002.02,0001.41,0000.96,-000.22,0000.14,0000.25,0000.19,0000.62,0000.27,19.2,25.4,06.3,04.3,0668.0,31.0
2021-08-08T12:48:00Z,00000200,00000000,0002.37,0001.32,0000.92,0000.43,-000.08,0000.43,0000.87,0000.39,0000.55,19.2,25.4,06.5,04.5,0668.0,31.0
2021-08-08T12:49:00Z,00000200,00000000,0002.16,0001.13,0000.92,0000.10,-000.07,-000.09,0000.33,0000.34,0000.63,19.2,25.4,06.5,04.4,0668.0,31.0
2021-08-08T12:50:00Z,00000200,00000000,0002.29,0001.24,0000.73,0000.78,0000.18,0000.39,0000.16,0000.36,0000.23,19.2,25.4,06.5,04.5,0668.1,31.0
2021-08-08T12:51:00Z,00000200,00000000,0001.59,0001.11,0001.00,0000.38,0000.05,0000.20,0000.90,0000.53,0000.07,19.2,25.4,06.6,04.5,0668.0,31.0
2021-08-08T12:52:00Z,00000200,00000000,0002.04,0001.48,0000.88,-000.00,0000.06,0000.17,0000.25,0000.47,0000.77,19.2,25.4,06.5,04.5,0668.0,31.0
2021-08-08T12:53:00Z,00000200,00000000,0001.70,0001.57,0001.07,0000.17,0000.33,0000.21,0000.22,0000.02,0000.08,19.2,25.4,06.5,04.5,0668.0,31.0
2021-08-08T12:54:00Z,00000200,00000000,0001.36,0001.32,0001.39,0000.48,0000.11,0000.19,0000.11,0000.37,0000.12,19.2,25.4,06.5,04.5,0668.1,31.0
2021-08-08T12:55:00Z,00000200,00000000,0002.17,0001.37,0001.10,0000.55,0000.24,0000.54,0000.79,0000.58,0000.65,19.2,25.4,06.6,04.5,0668.0,31.0
2021-08-08T12:56:00Z,00000200,00000000,0001.54,0001.53,0000.86,0000.32,0000.29,0000.33,0000.75,0000.46,0000.52,19.2,25.4,06.6,04.5,0668.1,31.0
2021-08-08T12:57:00Z,00000200,40000000,,,,,,,-000.87,-000.61,-001.00,19.2,25.4,06.7,04.6,0668.0,31.0
2021-08-08T12:58:00Z,00000200,60000000,,,,,,,0000.35,0000.53,0000.54,19.0,25.6,06.4,04.3,0667.1,31.1
2021-08-08T12:59:00Z,00000200,20000000,,,,,,,0000.07,-000.37,-000.17,19.0,25.7,06.5,04.3,0667.1,31.0
